| time (UTC) | temp F | wind direction | speed MPH | gust MPH | rain 1hr in | rain 24hr in | rain mn in | humidity % | barometer mb |
| 20260509120336 | 83 | 264 | 6.0 | 13.0 | 0.00 | 0.00 | 0.00 | 83 | 1015.6 |
| 20260509115319 | 83 | 270 | 5.0 | 10.0 | 0.00 | 0.00 | 0.00 | 83 | 1015.5 |
| 20260509114318 | 83 | 276 | 6.0 | 11.0 | 0.00 | 0.00 | 0.00 | 82 | 1015.5 |
| 20260509113333 | 82 | 296 | 4.0 | 12.0 | 0.00 | 0.00 | 0.00 | 82 | 1015.5 |
| 20260509112329 | 82 | 268 | 3.0 | 10.0 | 0.00 | 0.00 | 0.00 | 83 | 1015.4 |
| 20260509111327 | 82 | 274 | 5.0 | 12.0 | 0.00 | 0.00 | 0.00 | 83 | 1015.3 |
| 20260509110333 | 81 | 266 | 6.0 | 12.0 | 0.00 | 0.00 | 0.00 | 83 | 1015.2 |
| 20260509105335 | 81 | 309 | 5.0 | 11.0 | 0.00 | 0.00 | 0.00 | 83 | 1015.1 |
| 20260509104331 | 81 | 263 | 6.0 | 10.0 | 0.00 | 0.00 | 0.00 | 82 | 1015.1 |
| 20260509103331 | 81 | 270 | 6.0 | 10.0 | 0.00 | 0.00 | 0.00 | 82 | 1015.1 |
| 20260509102347 | 81 | 275 | 4.0 | 11.0 | 0.00 | 0.00 | 0.00 | 83 | 1015.1 |
| 20260509101321 | 81 | 274 | 4.0 | 10.0 | 0.00 | 0.00 | 0.00 | 83 | 1015.1 |
| 20260509100331 | 81 | 244 | 6.0 | 11.0 | 0.00 | 0.00 | 0.00 | 83 | 1015.0 |
| 20260509095353 | 81 | 272 | 5.0 | 9.0 | 0.00 | 0.00 | 0.00 | 83 | 1015.1 |
| 20260509094348 | 81 | 274 | 4.0 | 8.0 | 0.00 | 0.00 | 0.00 | 83 | 1015.1 |
| 20260509093322 | 81 | 288 | 4.0 | 11.0 | 0.00 | 0.00 | 0.00 | 84 | 1015.0 |
| 20260509092322 | 81 | 286 | 2.0 | 8.0 | 0.00 | 0.00 | 0.00 | 83 | 1015.1 |
| 20260509091317 | 81 | 257 | 5.0 | 9.0 | 0.00 | 0.00 | 0.00 | 82 | 1015.0 |
| 20260509090404 | 81 | 275 | 3.0 | 10.0 | 0.00 | 0.00 | 0.00 | 82 | 1015.0 |
| 20260509085325 | 81 | 281 | 7.0 | 10.0 | 0.00 | 0.00 | 0.00 | 81 | 1015.0 |
| 20260509084344 | 81 | 257 | 4.0 | 10.0 | 0.00 | 0.00 | 0.00 | 83 | 1015.0 |
| 20260509083319 | 81 | 220 | 5.0 | 10.0 | 0.00 | 0.00 | 0.00 | 84 | 1015.1 |
| 20260509082356 | 81 | 264 | 4.0 | 11.0 | 0.00 | 0.00 | 0.00 | 84 | 1015.1 |
| 20260509081331 | 81 | 266 | 3.0 | 10.0 | 0.00 | 0.00 | 0.00 | 85 | 1015.1 |
| 20260509080401 | 81 | 257 | 5.0 | 10.0 | 0.00 | 0.00 | 0.00 | 85 | 1015.2 |
| 20260509075322 | 81 | 246 | 6.0 | 12.0 | 0.00 | 0.00 | 0.00 | 84 | 1015.1 |
| 20260509074318 | 81 | 260 | 6.0 | 10.0 | 0.00 | 0.00 | 0.00 | 83 | 1015.1 |
| 20260509073317 | 81 | 236 | 3.0 | 9.0 | 0.00 | 0.00 | 0.00 | 84 | 1015.3 |
| 20260509072334 | 81 | 253 | 6.0 | 10.0 | 0.00 | 0.00 | 0.00 | 83 | 1015.4 |
| 20260509071328 | 82 | 237 | 5.0 | 9.0 | 0.00 | 0.00 | 0.00 | 85 | 1015.3 |
| 20260509070335 | 82 | 241 | 4.0 | 10.0 | 0.00 | 0.00 | 0.00 | 85 | 1015.5 |
| 20260509065320 | 82 | 253 | 6.0 | 11.0 | 0.00 | 0.00 | 0.00 | 84 | 1015.5 |
| 20260509064335 | 82 | 251 | 5.0 | 11.0 | 0.00 | 0.00 | 0.00 | 84 | 1015.5 |
| 20260509063330 | 82 | 234 | 5.0 | 11.0 | 0.00 | 0.00 | 0.00 | 86 | 1015.6 |
| 20260509062327 | 82 | 217 | 5.0 | 11.0 | 0.00 | 0.00 | 0.00 | 86 | 1015.6 |
| 20260509061346 | 82 | 246 | 7.0 | 11.0 | 0.00 | 0.00 | 0.00 | 86 | 1015.7 |
| 20260509060332 | 82 | 239 | 5.0 | 11.0 | 0.00 | 0.00 | 0.00 | 86 | 1015.7 |
| 20260509055333 | 82 | 222 | 5.0 | 11.0 | 0.00 | 0.00 | 0.00 | 84 | 1015.7 |
| 20260509054333 | 82 | 255 | 5.0 | 10.0 | 0.00 | 0.00 | 0.00 | 85 | 1015.8 |
| 20260509053327 | 82 | 246 | 5.0 | 11.0 | 0.00 | 0.00 | 0.00 | 85 | 1015.8 |
| 20260509052324 | 82 | 210 | 6.0 | 12.0 | 0.00 | 0.00 | 0.00 | 84 | 1015.9 |
| 20260509051317 | 82 | 259 | 4.0 | 10.0 | 0.00 | 0.00 | 0.00 | 83 | 1016.1 |
| 20260509050348 | 82 | 265 | 5.0 | 11.0 | 0.00 | 0.00 | 0.00 | 82 | 1016.1 |
| 20260509045330 | 82 | 232 | 5.0 | 10.0 | 0.00 | 0.00 | 0.00 | 83 | 1016.2 |
| 20260509044325 | 82 | 267 | 4.0 | 10.0 | 0.00 | 0.00 | 0.00 | 83 | 1016.2 |
| 20260509043321 | 82 | 255 | 4.0 | 9.0 | 0.00 | 0.00 | 0.00 | 84 | 1016.3 |
| 20260509042321 | 82 | 277 | 5.0 | 9.0 | 0.00 | 0.00 | 0.00 | 84 | 1016.3 |
| 20260509041336 | 82 | 243 | 5.0 | 9.0 | 0.00 | 0.00 | 0.00 | 83 | 1016.3 |
| 20260509040343 | 82 | 236 | 5.0 | 8.0 | 0.00 | 0.00 | 0.00 | 82 | 1016.3 |
| 20260509035329 | 82 | 257 | 4.0 | 9.0 | 0.00 | 0.00 | 0.00 | 82 | 1016.4 |
| 20260509034323 | 82 | 226 | 4.0 | 8.0 | 0.00 | 0.00 | 0.00 | 82 | 1016.3 |
| 20260509033317 | 82 | 243 | 5.0 | 10.0 | 0.00 | 0.00 | 0.00 | 82 | 1016.3 |
| 20260509032333 | 83 | 255 | 4.0 | 8.0 | 0.00 | 0.00 | 0.00 | 83 | 1016.2 |
| 20260509031332 | 83 | 260 | 4.0 | 9.0 | 0.00 | 0.00 | 0.00 | 83 | 1016.2 |
| 20260509030339 | 83 | 244 | 4.0 | 8.0 | 0.00 | 0.00 | 0.00 | 82 | 1016.2 |
| 20260509025322 | 83 | 256 | 3.0 | 8.0 | 0.00 | 0.00 | 0.00 | 81 | 1016.1 |
| 20260509024321 | 83 | 218 | 2.0 | 6.0 | 0.00 | 0.00 | 0.00 | 81 | 1016.0 |
| 20260509023317 | 83 | 244 | 3.0 | 7.0 | 0.00 | 0.00 | 0.00 | 81 | 1016.0 |
| 20260509022334 | 83 | 268 | 5.0 | 8.0 | 0.00 | 0.00 | 0.00 | 80 | 1015.9 |
| 20260509021349 | 83 | 269 | 2.0 | 6.0 | 0.00 | 0.00 | 0.00 | 80 | 1015.9 |
| 20260509020339 | 83 | 224 | 3.0 | 6.0 | 0.00 | 0.00 | 0.00 | 80 | 1015.8 |
| 20260509015321 | 83 | 250 | 2.0 | 6.0 | 0.00 | 0.00 | 0.00 | 80 | 1015.7 |
| 20260509014316 | 83 | 218 | 1.0 | 6.0 | 0.00 | 0.00 | 0.00 | 80 | 1015.4 |
| 20260509013352 | 83 | 239 | 3.0 | 6.0 | 0.00 | 0.00 | 0.00 | 80 | 1015.4 |
| 20260509012331 | 83 | 240 | 3.0 | 6.0 | 0.00 | 0.00 | 0.00 | 80 | 1015.3 |
| 20260509011326 | 83 | 250 | 3.0 | 7.0 | 0.00 | 0.00 | 0.00 | 81 | 1015.2 |
| 20260509010333 | 83 | 259 | 3.0 | 7.0 | 0.00 | 0.00 | 0.00 | 80 | 1015.0 |
| 20260509005320 | 83 | 226 | 3.0 | 7.0 | 0.00 | 0.00 | 0.00 | 78 | 1015.0 |
| 20260509004335 | 83 | 226 | 4.0 | 6.0 | 0.00 | 0.00 | 0.00 | 79 | 1014.8 |
| 20260509003331 | 83 | 254 | 4.0 | 7.0 | 0.00 | 0.00 | 0.00 | 79 | 1014.7 |
| 20260509002328 | 83 | 257 | 2.0 | 7.0 | 0.00 | 0.00 | 0.00 | 78 | 1014.7 |
| 20260509001327 | 83 | 242 | 3.0 | 6.0 | 0.00 | 0.00 | 0.00 | 77 | 1014.7 |
| 20260509000355 | 84 | 290 | 2.0 | 4.0 | 0.00 | 0.00 | 0.00 | 77 | 1014.7 |
| 20260508235355 | 84 | 235 | 2.0 | 7.0 | 0.00 | 0.00 | 0.00 | 76 | 1014.5 |
| 20260508234329 | 85 | 267 | 3.0 | 6.0 | 0.00 | 0.00 | 0.00 | 75 | 1014.5 |
| 20260508233328 | 86 | 245 | 3.0 | 6.0 | 0.00 | 0.00 | 0.00 | 73 | 1014.3 |
| 20260508232325 | 86 | 276 | 0.0 | 4.0 | 0.00 | 0.00 | 0.00 | 72 | 1014.2 |
| 20260508231321 | 86 | 285 | 1.0 | 6.0 | 0.00 | 0.00 | 0.00 | 73 | 1014.2 |
| 20260508230331 | 87 | 265 | 0.0 | 4.0 | 0.00 | 0.00 | 0.00 | 72 | 1014.1 |
| 20260508225334 | 87 | 346 | 3.0 | 7.0 | 0.00 | 0.00 | 0.00 | 71 | 1014.2 |
| 20260508224329 | 87 | 352 | 0.0 | 4.0 | 0.00 | 0.00 | 0.00 | 72 | 1014.3 |
| 20260508223328 | 87 | 306 | 2.0 | 5.0 | 0.00 | 0.00 | 0.00 | 71 | 1014.3 |
| 20260508222325 | 88 | 288 | 2.0 | 5.0 | 0.00 | 0.00 | 0.00 | 72 | 1014.4 |
| 20260508221341 | 87 | 268 | 2.0 | 7.0 | 0.00 | 0.00 | 0.00 | 73 | 1014.4 |
| 20260508220406 | 87 | 307 | 3.0 | 6.0 | 0.00 | 0.00 | 0.00 | 71 | 1014.3 |
| 20260508215331 | 87 | 262 | 5.0 | 8.0 | 0.00 | 0.00 | 0.00 | 71 | 1014.4 |
| 20260508214326 | 87 | 293 | 4.0 | 8.0 | 0.00 | 0.00 | 0.00 | 73 | 1014.4 |
| 20260508213321 | 87 | 252 | 5.0 | 8.0 | 0.00 | 0.00 | 0.00 | 73 | 1014.5 |
| 20260508212316 | 87 | 337 | 6.0 | 9.0 | 0.00 | 0.00 | 0.00 | 72 | 1014.6 |
| 20260508211335 | 87 | 260 | 5.0 | 9.0 | 0.00 | 0.00 | 0.00 | 71 | 1014.8 |
| 20260508210343 | 87 | 328 | 6.0 | 11.0 | 0.00 | 0.00 | 0.00 | 72 | 1014.9 |
| 20260508205344 | 87 | 287 | 3.0 | 9.0 | 0.00 | 0.00 | 0.00 | 71 | 1015.1 |
| 20260508204318 | 87 | 259 | 3.0 | 9.0 | 0.00 | 0.00 | 0.00 | 71 | 1015.1 |
| 20260508203317 | 87 | 249 | 5.0 | 9.0 | 0.00 | 0.00 | 0.00 | 72 | 1015.2 |
| 20260508202333 | 87 | 253 | 5.0 | 10.0 | 0.00 | 0.00 | 0.00 | 71 | 1015.4 |
| 20260508201328 | 87 | 262 | 5.0 | 11.0 | 0.00 | 0.00 | 0.00 | 70 | 1015.5 |
| 20260508200339 | 87 | 246 | 6.0 | 12.0 | 0.00 | 0.00 | 0.00 | 71 | 1015.5 |
| 20260508195322 | 88 | 262 | 5.0 | 12.0 | 0.00 | 0.00 | 0.00 | 72 | 1015.5 |
| 20260508194335 | 86 | 274 | 5.0 | 12.0 | 0.00 | 0.00 | 0.00 | 73 | 1015.7 |
| 20260508193330 | 86 | 229 | 9.0 | 12.0 | 0.00 | 0.00 | 0.00 | 71 | 1015.7 |
| 20260508192330 | 87 | 248 | 8.0 | 14.0 | 0.00 | 0.00 | 0.00 | 70 | 1015.9 |
| 20260508191325 | 87 | 248 | 7.0 | 12.0 | 0.00 | 0.00 | 0.00 | 71 | 1015.9 |
| 20260508190352 | 87 | 226 | 6.0 | 11.0 | 0.00 | 0.00 | 0.00 | 69 | 1016.0 |
| 20260508185354 | 87 | 271 | 6.0 | 12.0 | 0.00 | 0.00 | 0.00 | 70 | 1016.3 |
| 20260508184332 | 87 | 265 | 6.0 | 12.0 | 0.00 | 0.00 | 0.00 | 71 | 1016.3 |
| 20260508183328 | 87 | 251 | 6.0 | 11.0 | 0.00 | 0.00 | 0.00 | 70 | 1016.4 |
| 20260508182325 | 87 | 288 | 6.0 | 10.0 | 0.00 | 0.00 | 0.00 | 70 | 1016.4 |
| 20260508181324 | 87 | 259 | 3.0 | 10.0 | 0.00 | 0.00 | 0.00 | 67 | 1016.6 |
| 20260508180331 | 87 | 257 | 4.0 | 9.0 | 0.00 | 0.00 | 0.00 | 67 | 1016.7 |
| 20260508175333 | 87 | 210 | 6.0 | 10.0 | 0.00 | 0.00 | 0.00 | 67 | 1016.7 |
| 20260508174329 | 88 | 237 | 3.0 | 10.0 | 0.00 | 0.00 | 0.00 | 67 | 1016.9 |
| 20260508173328 | 87 | 234 | 4.0 | 12.0 | 0.00 | 0.00 | 0.00 | 69 | 1017.1 |
| 20260508172324 | 87 | 180 | 5.0 | 11.0 | 0.00 | 0.00 | 0.00 | 69 | 1017.2 |
| 20260508171319 | 86 | 204 | 6.0 | 10.0 | 0.00 | 0.00 | 0.00 | 69 | 1017.3 |
| 20260508170349 | 86 | 196 | 6.0 | 11.0 | 0.00 | 0.00 | 0.00 | 69 | 1017.3 |
| 20260508165351 | 86 | 177 | 6.0 | 11.0 | 0.00 | 0.00 | 0.00 | 70 | 1017.5 |
| 20260508164324 | 86 | 168 | 6.0 | 11.0 | 0.00 | 0.00 | 0.00 | 70 | 1017.6 |
| 20260508163320 | 85 | 166 | 5.0 | 11.0 | 0.00 | 0.00 | 0.00 | 72 | 1017.7 |
| 20260508162340 | 85 | 201 | 6.0 | 12.0 | 0.00 | 0.00 | 0.00 | 72 | 1017.8 |
| 20260508161334 | 85 | 195 | 5.0 | 11.0 | 0.00 | 0.00 | 0.00 | 72 | 1017.9 |
| 20260508160342 | 85 | 178 | 6.0 | 15.0 | 0.00 | 0.00 | 0.00 | 72 | 1018.2 |
| 20260508155324 | 85 | 182 | 7.0 | 12.0 | 0.00 | 0.00 | 0.00 | 73 | 1018.3 |
| 20260508154344 | 84 | 40 | 8.0 | 14.0 | 0.00 | 0.00 | 0.00 | 75 | 1018.4 |
| 20260508153318 | 85 | 197 | 5.0 | 10.0 | 0.00 | 0.00 | 0.00 | 76 | 1018.4 |
| 20260508152335 | 84 | 206 | 5.0 | 11.0 | 0.00 | 0.00 | 0.00 | 76 | 1018.5 |
| 20260508151334 | 85 | 219 | 5.0 | 12.0 | 0.00 | 0.00 | 0.00 | 76 | 1018.5 |
| 20260508150401 | 84 | 203 | 6.0 | 12.0 | 0.00 | 0.00 | 0.00 | 76 | 1018.6 |
| 20260508145322 | 84 | 178 | 5.0 | 11.0 | 0.00 | 0.00 | 0.00 | 78 | 1018.6 |
| 20260508144317 | 84 | 181 | 7.0 | 13.0 | 0.00 | 0.00 | 0.00 | 77 | 1018.5 |
| 20260508143336 | 84 | 155 | 6.0 | 14.0 | 0.00 | 0.00 | 0.00 | 80 | 1018.4 |
| 20260508142332 | 84 | 205 | 5.0 | 11.0 | 0.00 | 0.00 | 0.00 | 81 | 1018.1 |
| 20260508141327 | 84 | 172 | 8.0 | 13.0 | 0.00 | 0.00 | 0.00 | 81 | 1018.1 |
| 20260508140338 | 84 | 128 | 6.0 | 12.0 | 0.00 | 0.00 | 0.00 | 80 | 1018.0 |
| 20260508135320 | 85 | 180 | 5.0 | 12.0 | 0.00 | 0.00 | 0.00 | 80 | 1017.8 |
| 20260508134335 | 85 | 124 | 4.0 | 10.0 | 0.00 | 0.00 | 0.00 | 80 | 1017.7 |
| 20260508133351 | 84 | 218 | 4.0 | 9.0 | 0.00 | 0.00 | 0.00 | 81 | 1017.7 |
| 20260508132331 | 84 | 192 | 4.0 | 9.0 | 0.00 | 0.00 | 0.00 | 82 | 1017.7 |
| 20260508131346 | 84 | 130 | 5.0 | 10.0 | 0.00 | 0.00 | 0.00 | 82 | 1017.7 |
| 20260508130331 | 84 | 161 | 4.0 | 9.0 | 0.00 | 0.00 | 0.00 | 82 | 1017.7 |
| 20260508125334 | 84 | 108 | 4.0 | 10.0 | 0.00 | 0.00 | 0.00 | 83 | 1017.6 |
| 20260508124353 | 84 | 174 | 4.0 | 10.0 | 0.00 | 0.00 | 0.00 | 83 | 1017.5 |
| 20260508123328 | 84 | 159 | 3.0 | 6.0 | 0.00 | 0.00 | 0.00 | 83 | 1017.4 |
| 20260508122324 | 84 | 194 | 0.0 | 2.0 | 0.00 | 0.00 | 0.00 | 83 | 1017.4 |
| 20260508121323 | 84 | 205 | 0.0 | 4.0 | 0.00 | 0.00 | 0.00 | 83 | 1017.3 |